Content
SEND FEEDBACK

Daily
Averages
Monthly
Summary
United States of America

FREDERICK, SOUTH DAKOTA


Home > North America > United States > South Dakota
Elevation: 1370 feet     Latitude: 45 50N     Longitude: 098 30W

WEATHER
 
SELECT A DAY
Number of Records: 209,900;   Date Range: 1/1/95 - 7/22/14
 
SHARE

PRINT THIS DATA

[ ← Previous Day ]
WEATHER ALMANAC - FEBRUARY 13, 2013
[ Next Day → ]
[ °C ]   °F
Weather ElementAverageHighLow
Temperature28.4 °F37.9 °F (4:53 pm)12.9 °F (6:53 am)
Dewpoint23.5 °F30.2 °F (3:42 pm)10 °F (6:53 am)
Humidity82.2 %88 % (4:53 am)73 % (4:53 pm)
Barometer29.71 in29.84 in (11:53 pm)29.58 in (3:42 pm)
Wind Speed11.6 mph24.2 mph (5:53 pm)
Wind Gust29.9 mph (5:53 pm)
Weather ElementAverage
Visibility9.2 mi
Wind DirectionWSW (257.3 °)

Weather ElementTotal
Precipitation---
Heating Degree Days39.6 (Base 65)
Averaged from 33 records on February 13, 2013
WEATHER CONDITIONS BREAKOUT
WIND DIRECTION BREAKOUT
WEATHER BY HOUR - FEBRUARY 13, 2013
[ °C ]   °F
Local TimeTemperatureDewpointHumidityBarometerVisibilityWind DirectionWind SpeedGust SpeedPrecipitationEventsConditions
1:53 AM27.0 °F21.9 °F81 %29.83 in10.0 miSSW (200°)8.1 mphOvercast
2:53 AM25.0 °F19.9 °F81 %29.83 in10.0 miSSW (210°)11.5 mphOvercast
3:53 AM21.0 °F17.1 °F85 %29.81 in10.0 miSW (220°)5.8 mphScattered Clouds
4:53 AM16.0 °F12.9 °F88 %29.79 in10.0 miSSW (210°)6.9 mphClear
5:53 AM14.0 °F10.4 °F86 %29.72 in10.0 miSW (230°)8.1 mphClear
6:53 AM12.9 °F10.0 °F88 %29.76 in10.0 miSouth (180°)6.9 mphClear
7:53 AM15.1 °F10.9 °F84 %29.76 in10.0 miSSE (150°)8.1 mphClear
8:53 AM19.0 °F15.1 °F85 %29.75 in10.0 miSouth (180°)6.9 mphOvercast
9:53 AM21.9 °F17.1 °F82 %29.72 in10.0 miSouth (180°)10.4 mphOvercast
10:53 AM25.0 °F19.9 °F81 %29.70 in10.0 miSSE (160°)11.5 mphOvercast
11:48 AM24.8 °F19.4 °F80 %29.63 in2.5 miSSE (160°)11.5 mph0.00 inSnowLight Snow
11:53 AM25.0 °F21.0 °F85 %29.67 in1.5 miSSE (160°)11.5 mph0.00 inSnowLight Snow
12:02 PM26.6 °F21.2 °F80 %29.61 in3.0 miSSE (150°)10.4 mph0.00 inSnowLight Snow
12:10 PM26.6 °F23.0 °F86 %29.61 in8.0 miSSE (160°)10.4 mph0.00 inSnowLight Snow
12:53 PM28.9 °F24.1 °F82 %29.64 in10.0 miSouth (190°)10.4 mph0.00 inOvercast
1:53 PM32.0 °F27.0 °F82 %29.62 in10.0 miSSW (200°)10.4 mph0.00 inOvercast
2:53 PM36.0 °F30.0 °F79 %29.61 in10.0 miWest (260°)9.2 mphOvercast
3:42 PM37.4 °F30.2 °F75 %29.58 in10.0 miWest (280°)10.4 mphOvercast
3:53 PM37.0 °F30.0 °F76 %29.63 in10.0 miWest (280°)9.2 mphOvercast
4:53 PM37.9 °F30.0 °F73 %29.65 in10.0 miNW (320°)15.0 mphOvercast
5:53 PM36.0 °F30.0 °F79 %29.68 in10.0 miNW (320°)24.2 mph29.9 mphOvercast
6:53 PM36.0 °F30.0 °F79 %29.70 in10.0 miNW (320°)20.7 mphOvercast
7:12 PM35.6 °F30.2 °F81 %29.66 in10.0 miNNW (330°)18.4 mphOvercast
7:53 PM34.0 °F28.9 °F82 %29.74 in10.0 miNNW (340°)12.7 mphOvercast
8:17 PM33.8 °F28.4 °F81 %29.71 in10.0 miNorth (350°)11.5 mphOvercast
8:45 PM33.8 °F28.4 °F81 %29.72 in9.0 miNorth (350°)12.7 mphOvercast
8:53 PM33.1 °F28.9 °F85 %29.77 in10.0 miNorth (350°)11.5 mphOvercast
9:08 PM33.8 °F28.4 °F81 %29.73 in10.0 miNorth (360°)16.1 mphOvercast
9:17 PM32.0 °F28.4 °F87 %29.73 in10.0 miNorth (350°)17.3 mphOvercast
9:53 PM30.9 °F27.0 °F85 %29.80 in10.0 miNNW (340°)11.5 mphOvercast
10:03 PM30.2 °F26.6 °F86 %29.76 in10.0 miNNW (340°)12.7 mphMostly Cloudy
10:53 PM30.0 °F26.1 °F85 %29.83 in10.0 miNW (320°)11.5 mphOvercast
11:53 PM28.9 °F24.1 °F82 %29.84 in10.0 miNNW (340°)10.4 mphMostly Cloudy
Hourly data recorded from KABR, located miles away from Frederick, South Dakota







STORIES FROM OUR PARTNERS